GW1183 Weather Reports


time (UTC)temp
C
wind
direction
speed
KPH
gust
KPH
rain 1hr
cm
rain 24hr
cm
rain mn
cm
humidity
%
barometer
mb
20260510120313 3 132 1.6 3.2 0.00 0.00 0.00 75 1014.5
20260510115809 3 256 3.2 4.8 0.00 0.00 0.00 77 1014.6
20260510115307 3 206 0.0 1.6 0.00 0.00 0.00 78 1014.4
20260510114802 3 195 0.0 1.6 0.00 0.00 0.00 78 1014.4
20260510114259 3 223 3.2 3.2 0.00 0.00 0.00 78 1014.5
20260510113754 2 279 1.6 1.6 0.00 0.00 0.00 78 1014.3
20260510113252 2 273 3.2 3.2 0.00 0.00 0.00 78 1014.3
20260510112747 2 203 0.0 1.6 0.00 0.00 0.00 80 1014.3
20260510112245 2 245 3.2 3.2 0.00 0.00 0.00 80 1014.2
20260510111740 2 259 3.2 3.2 0.00 0.00 0.00 80 1014.2
20260510111237 2 197 0.0 1.6 0.00 0.00 0.00 80 1014.1
20260510110737 2 250 1.6 3.2 0.00 0.00 0.00 81 1014.0
20260510110235 2 217 0.0 0.0 0.00 0.00 0.00 81 1014.0
20260510105734 1 190 0.0 0.0 0.00 0.00 0.00 82 1013.7
20260510105230 1 227 1.6 1.6 0.00 0.00 0.00 82 1013.7
20260510104726 1 204 0.0 0.0 0.00 0.00 0.00 83 1013.7
20260510104224 1 185 0.0 0.0 0.00 0.00 0.00 83 1013.5
20260510103720 1 193 0.0 0.0 0.00 0.00 0.00 84 1013.5
20260510103218 1 170 0.0 0.0 0.00 0.00 0.00 84 1013.3
20260510102717 1 176 0.0 0.0 0.00 0.00 0.00 84 1013.3
20260510102213 1 184 0.0 0.0 0.00 0.00 0.00 83 1013.2
20260510101711 1 184 0.0 0.0 0.00 0.00 0.00 83 1013.3
20260510101209 1 223 0.0 1.6 0.00 0.00 0.00 83 1013.0
20260510100704 1 256 1.6 1.6 0.00 0.00 0.00 82 1012.9
20260510100203 1 183 0.0 0.0 0.00 0.00 0.00 82 1012.6
20260510095658 1 296 1.6 1.6 0.00 0.00 0.00 83 1012.5
20260510095153 1 161 0.0 0.0 0.00 0.00 0.00 83 1012.6
20260510094652 1 122 1.6 1.6 0.00 0.00 0.00 82 1012.4
20260510094148 1 32 1.6 1.6 0.00 0.00 0.00 82 1012.0
20260510093644 1 162 1.6 3.2 0.00 0.00 0.00 82 1011.9
20260510093142 1 157 1.6 1.6 0.00 0.00 0.00 83 1012.1
20260510092638 1 114 0.0 1.6 0.00 0.00 0.00 83 1011.8
20260510092133 1 173 0.0 0.0 0.00 0.00 0.00 83 1011.7
20260510091629 1 25 1.6 1.6 0.00 0.00 0.00 84 1011.6
20260510091125 1 149 0.0 0.0 0.00 0.00 0.00 83 1011.5
20260510090617 1 115 1.6 1.6 0.00 0.00 0.00 84 1011.5
20260510090113 1 169 0.0 0.0 0.00 0.00 0.00 83 1011.6
20260510085608 1 148 0.0 0.0 0.00 0.00 0.00 83 1011.4
20260510085104 1 149 0.0 0.0 0.00 0.00 0.00 83 1011.4
20260510084601 1 141 0.0 1.6 0.00 0.00 0.00 83 1011.3
20260510084057 1 128 1.6 1.6 0.00 0.00 0.00 83 1011.2
20260510083553 1 165 0.0 0.0 0.00 0.00 0.00 85 1011.3
20260510083050 1 167 0.0 0.0 0.00 0.00 0.00 84 1011.2
20260510082547 1 183 0.0 0.0 0.00 0.00 0.00 84 1011.2
20260510082042 1 167 0.0 0.0 0.00 0.00 0.00 84 1010.9
20260510081538 1 178 0.0 0.0 0.00 0.00 0.00 83 1010.9
20260510081033 1 183 0.0 0.0 0.00 0.00 0.00 82 1010.9
20260510080532 2 183 0.0 0.0 0.00 0.00 0.00 81 1010.7
20260510080030 2 172 0.0 0.0 0.00 0.00 0.00 80 1010.8
20260510075527 2 156 1.6 1.6 0.00 0.00 0.00 79 1011.0
20260510075024 2 135 1.6 1.6 0.00 0.00 0.00 80 1010.7
20260510074522 1 136 0.0 0.0 0.00 0.00 0.00 81 1010.7
20260510074017 1 173 0.0 0.0 0.00 0.00 0.00 83 1010.8
20260510073513 1 176 0.0 0.0 0.00 0.00 0.00 83 1010.7
20260510073010 1 177 0.0 0.0 0.00 0.00 0.00 82 1010.7
20260510072507 1 160 0.0 0.0 0.00 0.00 0.00 84 1010.4
20260510072002 1 169 0.0 0.0 0.00 0.00 0.00 85 1010.5
20260510071458 1 174 0.0 0.0 0.00 0.00 0.00 85 1010.6
20260510070957 1 178 0.0 0.0 0.00 0.00 0.00 85 1010.5
20260510070454 1 183 0.0 0.0 0.00 0.00 0.00 84 1010.5
20260510065949 1 185 0.0 0.0 0.00 0.00 0.00 82 1010.4
20260510065447 1 178 0.0 0.0 0.00 0.00 0.00 81 1010.3
20260510064942 2 186 0.0 0.0 0.00 0.00 0.00 80 1010.4
20260510064440 2 182 0.0 0.0 0.00 0.00 0.00 79 1010.5
20260510063937 2 179 0.0 0.0 0.00 0.00 0.00 78 1010.5
20260510063432 2 185 0.0 0.0 0.00 0.00 0.00 78 1010.5
20260510062931 3 185 0.0 0.0 0.00 0.00 0.00 78 1010.4
20260510062431 3 181 0.0 0.0 0.00 0.00 0.00 75 1010.4
20260510061926 3 171 0.0 0.0 0.00 0.00 0.00 74 1010.2
20260510061423 3 187 0.0 0.0 0.00 0.00 0.00 72 1010.3
20260510060919 4 151 1.6 1.6 0.00 0.00 0.00 71 1010.1
20260510060417 4 46 1.6 3.2 0.00 0.00 0.00 71 1010.3
20260510055913 4 34 1.6 1.6 0.00 0.00 0.00 70 1010.0
20260510055408 4 157 0.0 1.6 0.00 0.00 0.00 71 1010.2
20260510054906 4 333 3.2 3.2 0.00 0.00 0.00 71 1009.9
20260510054402 4 8 1.6 3.2 0.00 0.00 0.00 73 1010.3
20260510053857 5 135 0.0 1.6 0.00 0.00 0.00 73 1010.0
20260510053353 5 106 1.6 1.6 0.00 0.00 0.00 73 1010.1
20260510052849 5 123 0.0 1.6 0.00 0.00 0.00 72 1009.9
20260510052345 5 126 0.0 1.6 0.00 0.00 0.00 72 1009.9
20260510051841 5 98 1.6 1.6 0.00 0.00 0.00 71 1009.7
20260510051338 5 51 3.2 3.2 0.00 0.00 0.00 70 1009.8
20260510050835 5 10 1.6 3.2 0.00 0.00 0.00 69 1009.7
20260510050332 5 26 3.2 3.2 0.00 0.00 0.00 68 1009.6
20260510045829 6 10 6.4 8.0 0.00 0.00 0.00 68 1009.5
20260510045326 6 15 4.8 4.8 0.00 0.00 0.00 67 1009.6
20260510044823 6 69 3.2 3.2 0.00 0.00 0.00 67 1009.5
20260510044320 6 9 6.4 8.0 0.00 0.00 0.00 65 1009.5
20260510043816 6 351 3.2 3.2 0.00 0.00 0.00 65 1009.4
20260510043312 6 5 4.8 8.0 0.00 0.00 0.00 64 1009.3
20260510042810 6 358 1.6 1.6 0.00 0.00 0.00 64 1009.3
20260510042307 7 16 3.2 3.2 0.00 0.00 0.00 63 1009.1
20260510041802 7 7 3.2 4.8 0.00 0.00 0.00 62 1008.9
20260510041300 7 356 4.8 4.8 0.00 0.00 0.00 60 1008.9
20260510040757 7 18 3.2 3.2 0.00 0.00 0.00 60 1008.9
20260510040253 7 34 4.8 4.8 0.00 0.00 0.00 59 1009.0
20260510035749 7 128 1.6 1.6 0.00 0.30 0.30 60 1009.1
20260510035244 7 110 0.0 1.6 0.00 0.30 0.30 62 1009.0
20260510034735 7 190 0.0 0.0 0.00 0.30 0.30 63 1008.8
20260510034233 7 250 0.0 1.6 0.00 0.30 0.30 63 1008.4
20260510033729 7 357 1.6 1.6 0.00 0.30 0.30 61 1008.5
20260510033227 7 13 6.4 8.0 0.00 0.30 0.30 60 1008.4
20260510032723 7 354 1.6 3.2 0.00 0.30 0.30 61 1008.4
20260510032219 7 31 1.6 3.2 0.00 0.30 0.30 61 1008.4
20260510031714 7 24 3.2 3.2 0.00 0.30 0.30 63 1008.2
20260510031211 7 345 1.6 3.2 0.00 0.30 0.30 66 1008.1
20260510030710 7 162 1.6 1.6 0.00 0.30 0.30 66 1007.9
20260510030208 7 3 1.6 1.6 0.00 0.30 0.30 67 1007.7
20260510025705 8 87 3.2 3.2 0.00 0.30 0.30 65 1007.8
20260510025202 8 58 1.6 1.6 0.00 0.30 0.30 65 1008.0
20260510024659 8 5 1.6 1.6 0.00 0.30 0.30 65 1007.5
20260510024155 8 0 3.2 3.2 0.00 0.30 0.30 66 1007.5
20260510023651 8 104 1.6 3.2 0.00 0.30 0.30 66 1007.7
20260510023148 8 190 1.6 3.2 0.00 0.30 0.30 66 1007.7
20260510022643 7 8 1.6 3.2 0.00 0.30 0.30 68 1007.5
20260510022139 7 163 0.0 1.6 0.00 0.30 0.30 70 1007.2
20260510021634 7 183 0.0 0.0 0.00 0.30 0.30 73 1007.3
20260510021132 7 165 0.0 0.0 0.00 0.30 0.30 71 1007.2
20260510020626 7 163 0.0 0.0 0.00 0.30 0.30 71 1007.0
20260510020121 8 192 0.0 0.0 0.00 0.30 0.30 71 1007.3
20260510015618 8 219 0.0 1.6 0.00 0.30 0.30 69 1007.0
20260510015114 8 257 1.6 1.6 0.00 0.30 0.30 68 1006.9
20260510014610 8 133 1.6 1.6 0.00 0.30 0.30 67 1007.0
20260510014108 8 143 1.6 1.6 0.00 0.30 0.30 65 1006.7
20260510013602 9 344 1.6 1.6 0.00 0.30 0.30 62 1006.7
20260510013058 9 17 1.6 1.6 0.00 0.30 0.30 62 1006.7
20260510012557 9 344 4.8 4.8 0.00 0.30 0.30 60 1006.5
20260510012054 9 347 4.8 4.8 0.00 0.30 0.30 62 1006.6
20260510011553 10 347 6.4 8.0 0.00 0.30 0.30 65 1006.3
20260510011050 10 36 4.8 4.8 0.00 0.30 0.30 66 1006.1
20260510010546 10 347 6.4 8.0 0.00 0.30 0.30 67 1006.1
20260510010044 10 344 8.0 11.3 0.00 0.30 0.30 68 1005.7
20260510005539 11 3 4.8 4.8 0.00 0.30 0.30 67 1005.4
20260510005037 11 356 6.4 8.0 0.00 0.30 0.30 68 1005.3
20260510004534 12 39 3.2 3.2 0.00 0.30 0.30 66 1005.3
20260510004032 12 8 4.8 4.8 0.00 0.30 0.30 64 1005.1
20260510003529 12 8 4.8 4.8 0.00 0.30 0.30 64 1004.9
20260510003024 12 286 3.2 8.0 0.00 0.30 0.30 67 1004.6
20260510002520 12 219 0.0 1.6 0.00 0.30 0.30 66 1004.5
20260510002017 12 212 1.6 1.6 0.00 0.30 0.30 65 1004.5
20260510001514 12 204 0.0 0.0 0.00 0.30 0.30 65 1004.5
20260510001012 12 183 0.0 1.6 0.00 0.30 0.30 65 1004.2
20260510000507 12 204 0.0 0.0 0.00 0.30 0.30 64 1004.1
20260510000004 12 263 3.2 3.2 0.00 0.30 0.30 66 1004.1
20260509235501 12 279 3.2 3.2 0.00 0.30 0.30 67 1004.0
20260509234957 13 195 0.0 0.0 0.00 0.30 0.30 68 1003.8
20260509234454 13 212 0.0 0.0 0.00 0.30 0.30 68 1004.1
20260509233952 13 189 0.0 0.0 0.00 0.30 0.30 67 1004.0
20260509233449 13 193 1.6 1.6 0.00 0.30 0.30 66 1003.7
20260509232945 13 182 0.0 0.0 0.00 0.30 0.30 66 1003.7
20260509232443 13 293 1.6 3.2 0.00 0.30 0.30 65 1003.5
20260509231938 13 186 1.6 1.6 0.00 0.30 0.30 65 1003.6
20260509231435 13 157 1.6 1.6 0.00 0.30 0.30 65 1003.5
20260509230934 13 193 0.0 1.6 0.00 0.30 0.30 67 1003.5
20260509230430 12 210 0.0 0.0 0.00 0.30 0.30 73 1003.4
20260509225926 13 165 1.6 1.6 0.00 0.30 0.30 80 1003.4
20260509225422 13 225 3.2 3.2 0.00 0.30 0.30 78 1003.2
20260509224919 13 278 4.8 4.8 0.00 0.30 0.30 78 1003.1
20260509224414 13 261 6.4 8.0 0.00 0.30 0.30 77 1003.3
20260509223912 13 279 8.0 11.3 0.00 0.30 0.30 76 1003.1
20260509223408 13 217 6.4 8.0 0.00 0.30 0.30 76 1002.9
20260509222905 13 257 9.7 12.9 0.00 0.30 0.30 76 1002.9
20260509222401 13 237 12.9 14.5 0.00 0.30 0.30 75 1002.6
20260509221856 13 218 6.4 9.7 0.00 0.30 0.30 74 1002.6
20260509221354 13 208 8.0 9.7 0.00 0.30 0.30 74 1002.5
20260509220849 13 256 4.8 9.7 0.00 0.30 0.30 75 1002.4
20260509220345 13 236 4.8 8.0 0.00 0.30 0.30 73 1002.5
20260509215841 13 251 8.0 11.3 0.00 0.30 0.30 73 1002.4
20260509215337 13 239 4.8 4.8 0.00 0.30 0.30 75 1002.2
20260509214835 13 224 9.7 11.3 0.00 0.30 0.30 73 1002.5
20260509214332 13 172 6.4 11.3 0.00 0.30 0.30 74 1002.5
20260509213829 13 229 3.2 8.0 0.00 0.30 0.30 76 1002.3
20260509213324 13 229 14.5 20.9 0.00 0.30 0.30 75 1002.4
20260509212822 13 236 8.0 8.0 0.00 0.30 0.30 76 1002.3
20260509212320 13 231 9.7 12.9 0.00 0.30 0.30 76 1002.4
20260509211815 13 229 17.7 17.7 0.00 0.30 0.30 76 1002.4
20260509211311 13 250 11.3 12.9 0.00 0.30 0.30 78 1002.4
20260509210808 13 228 8.0 12.9 0.00 0.30 0.30 81 1002.2
20260509210306 12 255 11.3 12.9 0.00 0.30 0.30 83 1002.4
20260509205805 12 206 9.7 14.5 0.00 0.30 0.30 85 1002.4
20260509205300 12 226 14.5 16.1 0.00 0.30 0.30 85 1002.5
20260509204756 11 256 14.5 17.7 0.00 0.30 0.30 86 1002.3
20260509204252 11 232 16.1 22.5 0.00 0.30 0.30 87 1002.6
20260509203749 11 238 9.7 11.3 0.61 0.30 0.30 87 1002.6
20260509203247 11 204 14.5 22.5 1.37 0.30 0.30 87 1002.7
20260509202742 11 286 12.9 16.1 1.19 0.23 0.23 87 1003.4
20260509202238 12 280 9.7 11.3 0.48 0.08 0.08 85 1003.2
20260509201733 12 182 11.3 12.9 0.18 0.03 0.03 82 1002.7
20260509201230 13 221 12.9 17.7 0.00 0.00 0.00 79 1002.4
20260509200726 13 221 17.7 25.7 0.00 0.00 0.00 78 1002.1
20260509200221 13 211 24.1 27.4 0.00 0.00 0.00 77 1001.6
20260509195717 13 216 24.1 27.4 0.00 0.00 0.00 78 1001.8
20260509195213 13 198 19.3 20.9 0.00 0.00 0.00 78 1001.8
20260509194707 13 200 17.7 25.7 0.00 0.00 0.00 78 1001.7
20260509194204 13 186 20.9 25.7 0.00 0.00 0.00 76 1001.4
20260509193700 13 200 20.9 25.7 0.00 0.00 0.00 76 1001.4
20260509193155 13 200 19.3 24.1 0.00 0.00 0.00 74 1001.6
20260509192652 13 212 27.4 35.4 0.00 0.00 0.00 73 1001.7
20260509192147 13 199 24.1 33.8 0.00 0.00 0.00 71 1001.7
20260509191647 14 187 14.5 22.5 0.00 0.00 0.00 71 1001.7
20260509191144 14 191 20.9 33.8 0.00 0.00 0.00 70 1002.3
20260509190641 14 180 12.9 17.7 0.00 0.00 0.00 69 1002.3
20260509190138 14 202 19.3 27.4 0.00 0.00 0.00 70 1002.5
20260509185636 13 168 17.7 20.9 0.00 0.00 0.00 75 1002.4
20260509185131 13 204 16.1 17.7 0.00 0.00 0.00 75 1002.9
20260509184630 13 184 19.3 25.7 0.00 0.00 0.00 69 1002.5
20260509184126 14 220 14.5 22.5 0.00 0.00 0.00 69 1002.7
20260509183622 15 197 14.5 22.5 0.00 0.00 0.00 66 1002.6
20260509183117 15 197 22.5 27.4 0.00 0.00 0.00 62 1002.4
20260509182614 15 202 14.5 17.7 0.00 0.00 0.00 61 1002.5
20260509182111 15 207 11.3 14.5 0.00 0.00 0.00 66 1002.5
20260509181609 15 204 19.3 24.1 0.00 0.00 0.00 65 1002.7
20260509181106 15 206 16.1 17.7 0.00 0.00 0.00 68 1003.0
20260509180602 14 206 9.7 11.3 0.00 0.00 0.00 67 1003.0
20260509180100 14 196 20.9 27.4 0.00 0.00 0.00 69 1003.0
20260509175555 15 215 8.0 16.1 0.00 0.00 0.00 66 1002.9
20260509175052 15 214 17.7 25.7 0.00 0.00 0.00 63 1003.6
20260509174548 15 239 11.3 16.1 0.00 0.00 0.00 62 1003.4
20260509174043 15 182 11.3 17.7 0.00 0.00 0.00 64 1003.3
20260509173538 14 184 12.9 16.1 0.00 0.00 0.00 68 1003.5
20260509173034 15 172 8.0 12.9 0.00 0.00 0.00 67 1003.1
20260509172532 15 244 11.3 14.5 0.00 0.00 0.00 62 1002.9
20260509172027 15 215 12.9 16.1 0.00 0.00 0.00 62 1003.1
20260509171524 15 196 16.1 17.7 0.00 0.00 0.00 67 1003.1
20260509171020 15 220 19.3 22.5 0.00 0.00 0.00 64 1003.4
20260509170516 15 215 19.3 22.5 0.00 0.00 0.00 64 1003.3
20260509170012 15 199 8.0 14.5 0.00 0.00 0.00 67 1003.2
20260509165510 15 198 14.5 17.7 0.00 0.00 0.00 67 1003.3
20260509165006 15 198 19.3 25.7 0.00 0.00 0.00 66 1003.2
20260509164503 15 192 11.3 16.1 0.00 0.00 0.00 67 1003.3
20260509163958 14 166 11.3 16.1 0.00 0.00 0.00 70 1003.4
20260509163456 14 215 19.3 22.5 0.00 0.00 0.00 69 1003.5
20260509162955 14 171 17.7 25.7 0.00 0.00 0.00 66 1003.7
20260509162454 14 219 17.7 20.9 0.00 0.00 0.00 69 1003.9
20260509161949 14 204 22.5 25.7 0.00 0.00 0.00 69 1004.0
20260509161446 13 228 24.1 29.0 0.00 0.00 0.00 70 1004.1
20260509160941 13 209 16.1 20.9 0.00 0.00 0.00 73 1004.5
20260509160438 13 203 12.9 16.1 0.00 0.00 0.00 73 1004.7
20260509155933 13 206 20.9 29.0 0.00 0.00 0.00 72 1004.7
20260509155430 14 215 14.5 16.1 0.00 0.00 0.00 72 1005.0
20260509154926 14 204 9.7 14.5 0.00 0.00 0.00 73 1005.2
20260509154422 13 219 12.9 16.1 0.00 0.00 0.00 73 1005.1
20260509153920 13 217 12.9 14.5 0.00 0.00 0.00 73 1005.3
20260509153416 13 200 12.9 14.5 0.00 0.00 0.00 73 1005.0
20260509152914 13 205 9.7 12.9 0.00 0.00 0.00 73 1005.3
20260509152409 13 217 17.7 20.9 0.00 0.00 0.00 73 1005.1
20260509151907 13 157 11.3 14.5 0.00 0.00 0.00 75 1005.0
20260509151402 13 225 16.1 25.7 0.00 0.00 0.00 75 1005.0
20260509150901 12 220 12.9 16.1 0.00 0.00 0.00 76 1004.9
20260509150358 12 212 9.7 11.3 0.00 0.00 0.00 77 1005.1
20260509145856 12 201 12.9 14.5 0.00 0.00 0.00 76 1005.0
20260509145350 13 225 9.7 16.1 0.00 0.00 0.00 77 1004.7
20260509144847 13 231 9.7 12.9 0.00 0.00 0.00 77 1004.8
20260509144344 12 243 16.1 22.5 0.00 0.00 0.00 78 1004.8
20260509143841 12 219 11.3 14.5 0.00 0.00 0.00 78 1004.9
20260509143338 12 228 9.7 12.9 0.00 0.00 0.00 77 1005.2
20260509142834 12 194 9.7 14.5 0.00 0.00 0.00 79 1005.1
20260509142331 12 187 14.5 16.1 0.00 0.00 0.00 79 1005.0
20260509141826 12 192 14.5 20.9 0.00 0.00 0.00 77 1005.0
20260509141328 12 204 14.5 22.5 0.00 0.00 0.00 79 1005.1
20260509140820 12 186 9.7 9.7 0.00 0.00 0.00 77 1005.3
20260509140317 12 195 14.5 24.1 0.00 0.00 0.00 77 1005.2
20260509135815 12 178 11.3 14.5 0.00 0.00 0.00 77 1005.1
20260509135312 12 207 8.0 11.3 0.00 0.00 0.00 78 1005.4
20260509134809 12 207 11.3 16.1 0.00 0.00 0.00 77 1005.4
20260509134307 11 202 17.7 22.5 0.00 0.00 0.00 80 1005.3
20260509133804 11 182 12.9 17.7 0.00 0.00 0.00 82 1005.4
20260509133300 11 208 12.9 14.5 0.00 0.00 0.00 82 1005.3
20260509132759 11 209 14.5 17.7 0.00 0.00 0.00 81 1005.3
20260509132257 11 184 11.3 16.1 0.00 0.00 0.00 82 1005.3
20260509131753 10 188 9.7 12.9 0.00 0.00 0.00 85 1005.3
20260509131250 10 199 8.0 12.9 0.00 0.00 0.00 84 1005.3
20260509130746 10 178 16.1 22.5 0.00 0.00 0.00 84 1005.6
20260509130242 10 206 14.5 17.7 0.00 0.00 0.00 84 1005.7
20260509125739 10 197 11.3 16.1 0.00 0.00 0.00 85 1006.0
20260509125236 10 232 19.3 24.1 0.00 0.00 0.00 85 1005.9
20260509124732 10 187 19.3 22.5 0.00 0.00 0.00 85 1006.0
20260509124229 10 216 9.7 11.3 0.00 0.00 0.00 86 1005.8
20260509123727 10 212 12.9 16.1 0.00 0.00 0.00 86 1005.9
20260509123224 9 221 14.5 16.1 0.00 0.00 0.00 86 1005.9
20260509122720 10 215 11.3 14.5 0.00 0.00 0.00 87 1005.9
20260509122217 9 232 11.3 14.5 0.00 0.00 0.00 87 1006.2
20260509121713 9 171 17.7 24.1 0.00 0.00 0.00 87 1006.2
20260509121211 9 199 11.3 14.5 0.00 0.00 0.00 88 1006.2
20260509120709 9 200 9.7 12.9 0.00 0.00 0.00 88 1006.1